Location: Marysville Observatory
(48.1092°N, 122.1645°W)
Time: 15:53:14
(UTC-07:00)

ISS - Visible Passes

Search period start: 19 April 2014 00:00
Search period end: 29 April 2014 00:00
Orbit: 414 x 419 km, 51.6° (Epoch: 19 April)

Date Brightness Start Highest point End Pass type
(mag) Time Alt. Az. Time Alt. Az. Time Alt. Az.
19 Apr -3.2 20:45:57 10° WNW 20:49:20 80° NNE 20:52:33 11° ESE visible
19 Apr -1.5 22:23:04 10° W 22:25:27 22° SW 22:25:27 22° SW visible
20 Apr -2.2 21:34:22 10° WNW 21:37:28 35° SW 21:38:56 23° SSE visible
21 Apr -2.8 20:45:45 10° WNW 20:49:02 53° SSW 20:52:19 10° SE visible
22 Apr -0.9 21:34:40 10° W 21:36:47 16° SW 21:38:46 11° S visible
23 Apr -1.4 20:45:33 10° W 20:48:20 24° SW 20:51:06 10° SSE visible
25 Apr -0.4 20:46:19 10° WSW 20:47:12 11° SW 20:48:04 10° SSW visible
